Regional Weather Roundup
Issued by NWS

Home | Current Version | Previous Version | Text Only | Print | Product List | Glossary On
Versions: 1 2 3 4 5 6 7 8 9 10 11 12 13 14 15 16 17 18 19 20 21 22 23 24 25 26 27 28 29 30 31 32 33 34 35 36 37 38 39 40 41 42 43 44 45 46 47 48 49 50
000
ASUS44 KLUB 200610
RWRTX
WEST TEXAS WEATHER ROUNDUP
NATIONAL WEATHER SERVICE LUBBOCK TX
100 AM CDT WED AUG 20 2014

NOTE: "FAIR" INDICATES FEW OR NO CLOUDS BELOW 12,000 FEET WITH NO
SIGNIFICANT WEATHER AND/OR OBSTRUCTIONS TO VISIBILITY.

TXZ004-006>008-010-012-014-016-OKZ002-200700-
TEXAS PANHANDLE/OKLAHOMA PANHANDLE

CITY           SKY/WX    TMP DP  RH WIND       PRES   REMARKS
AMARILLO       FAIR      75  64  68 S13       29.94S
BORGER         FAIR      79  62  56 S17G23    29.90S
CANADIAN       FAIR      79  65  62 S15       29.88S
DALHART        CLEAR     74  58  57 S10       29.94S
DUMAS          FAIR      71  59  65 SE10      29.93S
GUYMON         FAIR      77  62  59 S14       29.88R
HEREFORD       FAIR      73  65  76 SE12      29.95S
PAMPA          FAIR      74  60  61 S18       29.93F
PERRYTON       FAIR      76  62  60 S15       29.90S
$$

TXZ026-029-035-045-048-200700-
SOUTHERN PANHANDLE/SOUTH PLAINS/ROLLING PLAINS

CITY           SKY/WX    TMP DP  RH WIND       PRES   REMARKS
CHILDRESS      FAIR      80  64  58 S10       29.88F
SEMINOLE       FAIR      78  61  55 S12G17    29.94S
LUBBOCK        FAIR      78  64  61 S16       29.93S
PLAINVIEW      FAIR      72  64  77 S7        29.93S
SNYDER         FAIR      76  64  66 S10       29.93S
$$

TXZ052-054-060>062-072-078-127-140-154-169-200700-
PERMIAN BASIN/CONCHO VALLEY/BIG COUNTRY/EDWARDS PLATEAU

CITY           SKY/WX    TMP DP  RH WIND       PRES   REMARKS
ABILENE        FAIR      79  66  64 S12       29.91S
BIG SPRING     FAIR      79  63  57 SE13      29.94F
BRADY          CLEAR     79  66  65 SE13      29.92S
BROWNWOOD      FAIR      82  64  54 S13G18    29.91R
JUNCTION       FAIR      78  70  76 SE7       29.92R
MIDLAND        FAIR      79  64  60 SE15      29.92F
ODESSA         FAIR      79  64  60 S18       29.93S
SAN ANGELO     FAIR      73  68  84 NE3       29.90F
SONORA         FAIR      79  68  69 SE9       29.96S
SWEETWATER     FAIR      77  65  66 SE9       29.95F
WINK           FAIR      81  65  58 SE16      29.88S
$$

TXZ055-058-074-075-080-082-200700-
FAR WEST/SOUTHWEST MOUNTAINS/TRANS PECOS

CITY           SKY/WX    TMP DP  RH WIND       PRES   REMARKS
ALPINE         FAIR      71  62  73 SW6       30.08F
DRYDEN           N/A     85  64  49 E5        29.88S
EL PASO        MOCLDY    73  59  61 SW17      29.97R
FORT STOCKTON  FAIR      77  65  66 S13       29.92S
GUADALUPE PASS MOCLDY    69  58  67 SW16      30.07S
MARFA          CLOUDY    68  63  83 E3        30.08S
PECOS          FAIR      78  63  60 E5        29.88F
PRESIDIO       CLOUDY    80  64  58 N6        29.92R
$$

TXZ014-016-019-021>030-083-200700
TEXAS TECH WEST TEXAS MESONET/TEXAS PANHANDLE/NORTHERN SOUTH PLAINS

CITY           SKY/WX    TMP DP  RH WIND       PRES   REMARKS
ABERNATHY 5ENE   N/A     75  64  67 S10       29.95S
AMARILLO 9NNE    N/A     74  64  68 S13       29.91S
AMARILLO 7SSE    N/A     74  64  69 S14       29.95S
AMHERST 1NE      N/A     75  63  66 SE13      29.94S
BOOTLEG 11WNW    N/A     71  60  68 SE12      29.98F
CANADIAN 6E      N/A     75  64  68 SE8       29.88S
CAPROCK CYN SP   N/A     76  66  70 S7        29.91S
CHILDRESS 2NNE   N/A     80  64  58 SE12      29.87S
CLARENDON 2WSW   N/A     76  62  61 SE12      29.91S
CLAUDE 12SW      N/A     76  64  67 SE8       29.94S
DIMMITT 2NE      N/A     72  62  71 S12       29.95S
FLOYDADA 2NNE    N/A     75  64  69 S13       29.93S
FRIONA 2NE       N/A     73  62  68 S17       29.95F
GOODLETT 3W      N/A     80  63  56 SE8       29.86S
HART 3N          N/A     69  64  83 SE6       29.95S
HEREFORD 2NW     N/A     74  62  65 S12       29.94F
MCLEAN 1E        N/A     73  62  67 SE7       29.91S
MEMPHIS 1NE      N/A     80  64  58 SE6       29.88S
MULESHOE 2SSW    N/A     73  62  66 SE8       29.95R
OLTON 6S         N/A     74  63  68 S12       29.94S
PALO DURO SP     N/A     76  63  64 SE12      29.95S
PAMPA 2E         N/A     74  62  66 SE13      29.93S
PLAINVIEW 1S     N/A     74  64  72 SE8       29.93S
SILVERTON 7ESE   N/A     75  65  69 SE12      29.93S
TULIA 2ENE       N/A     72  64  75 SE8       29.94S
TURKEY 2WSW      N/A     78  67  69 S9        29.89S
UMBARGER 3NNE    N/A     73  62  68 S12       29.95S
$$

TXZ033>036-039>041-045>048-200700
TEXAS TECH WEST TEXAS MESONET/SOUTH PLAINS

CITY           SKY/WX    TMP DP  RH WIND       PRES   REMARKS
AIKEN 3WSW       N/A     72  64  77 S7        29.95S
ANDREWS 2NE      N/A     78  61  55 SE10      29.93S
ANTON 6SSW       N/A     77  64  65 SE15      29.94S
BROWNFIELD 2S    N/A     76  62  62 SE13      29.94S
DENVR CTY 7WNW   N/A     76  58  54 S12       29.94S
GAIL 2ESE        N/A     77  63  60 S9        29.91F
LAMESA 2SE       N/A     76  62  62 SE10      29.94S
LEVELLAND 4S     N/A     75  63  64 SE12      29.94S
LUBBOCK 3WNW     N/A     78  63  59 S13       29.93S
MORTON 1ENE      N/A     76  61  58 SE10      29.94S
ODONNELL 1N      N/A     76  60  57 S10       29.94S
PLAINS 3N        N/A     77  60  55 S12       29.95S
RALLS 1SE        N/A     76  65  69 SE12      29.95S
REESE CENTER     N/A     77  63  62 S17       29.93F
SEAGRAVES 1SW    N/A     76  62  61 SE8       29.93S
SEMINOLE 2NNE    N/A     78  61  54 S12       29.93S
SLATON 2NE       N/A     76  64  64 S13       29.93F
SNYDER 3E        N/A     76  63  64 S12       29.92S
SUNDOWN 8SW      N/A     74  60  62 SE8       29.94S
TAHOKA 3NNE      N/A     76  62  61 S13       29.93S
WOLFFORTH 6SSW   N/A     77  63  61 SE13      29.94S
$$

TXZ031-032-036>038-042>044-200700-
TEXAS TECH WEST TEXAS MESONET/ROLLING PLAINS

CITY           SKY/WX    TMP DP  RH WIND       PRES   REMARKS
ASPERMONT 3NE    N/A     79  63  58 SE8       29.89S
FLUVANNA 3WNW    N/A     76  63  64 SE13      29.93S
GRAHAM 5SSW      N/A     77  62  59 S14       29.92F
GUTHRIE 10WSW    N/A     79  63  57 S13       29.88S
HASKELL 1NW      N/A     80  61  52 S8        29.88S
JAYTON 1SSE      N/A     78  62  59 S8        29.90S
KNOX CITY 3NW    N/A     80  61  52 S9        29.87S
LK A HENRY 1NW   N/A     78  64  62 S8        29.90S
NORTHFIELD 1S    N/A     80  67  64 S15       29.87S
ODELL 4ENE       N/A     81  66  61 SE14      29.87S
PADUCAH 10SW     N/A     79  64  61 S12       29.88S
POST 1NE         N/A     79  61  55 S12       29.91S
RRING SPRGS 3N   N/A     77  67  70 S12       29.91S
SEYMOUR 3NW      N/A     80  61  52 SE8       29.87S
SPUR 1W          N/A     77  62  59 S7        29.90S
WEINERT 2NNE     N/A     79  63  57 S7        29.88S
WHITE RVR 6NE    N/A     77  64  62 SE10      29.92S
$$

TXZ052-054-060>062-072-078-127-140-154-169-200700-
TEXAS TECH WEST TEXAS MESONET/PERMIAN BASIN/
CONCHO VALLEY/BIG COUNTRY/EDWARDS PLATEAU

CITY           SKY/WX    TMP DP  RH WIND       PRES   REMARKS
COYANOSA 2N      N/A     80  65  59 SE8       29.89S
JUNCTION 1SSW    N/A     78  71  78 S6        29.93R
MERTZON 3NNE     N/A     71  66  85 NE1       29.93S
SAN ANGELO 7NW   N/A     72  67  83 E6        29.91F
STRLNG CT 4WSW   N/A     74  64  68 E5        29.93F
ST LAWRNCE 5SW   N/A     73  61  65 SE9       29.93F
SWEETWATR 11SW   N/A     76  65  70 S12       29.94S
WALL 1E          N/A     71  67  85 CALM      29.91F
$$

TXZ055-058-074-075-080-082-200700-
TEXAS TECH WEST TEXAS MESONET/FAR WEST/SOUTHWEST MOUNTAINS/TRANS PECOS

CITY           SKY/WX    TMP DP  RH WIND       PRES   REMARKS
PRSMN GAP BBNP   N/A     78  63  60 N9        29.93F
GUADLPE MTN NP   N/A     71  54  54 W8        30.07S
$$


USA.gov is the U.S. government's official web portal to all federal, state and local government web resources and services.